CST,Max TemperatureF,Mean TemperatureF,Min TemperatureF,Max Dew PointF,MeanDew PointF,Min DewpointF,Max Humidity, Mean Humidity, Min Humidity, Max Sea Level PressureIn, Mean Sea Level PressureIn, Min Sea Level PressureIn, Max VisibilityMiles, Mean VisibilityMiles, Min VisibilityMiles, Max Wind SpeedMPH, Mean Wind SpeedMPH, Max Gust SpeedMPH,PrecipitationIn, CloudCover, Events, WindDirDegrees
2012-12-1,51,38,25,32,29,22,89,68,46,29.91,29.80,29.73,10,7,4,22,8,28,0.00,1,,214
2012-12-2,56,39,22,38,31,21,96,72,47,29.95,29.80,29.58,10,8,4,24,12,32,0.00,0,,169
2012-12-3,51,40,29,39,30,21,92,65,38,30.02,29.74,29.46,10,10,7,24,14,32,0.01,1,,242
2012-12-4,33,27,21,22,16,10,84,67,49,30.37,30.25,30.04,10,10,10,14,8,17,0.00,0,,351
2012-12-5,45,32,19,25,19,10,71,56,41,30.32,29.97,29.70,10,10,10,26,14,33,0.00,0,,158
2012-12-6,42,32,21,27,24,19,88,68,48,30.05,29.94,29.72,10,10,10,23,9,29,T,2,,317
2012-12-7,29,23,16,27,23,16,100,91,81,30.07,30.00,29.94,10,2,0,10,3,13,0.19,7,Fog-Snow,107
2012-12-8,27,22,16,25,21,15,96,90,84,30.05,29.90,29.79,10,2,0,21,10,26,0.21,8,Fog-Snow,143
2012-12-9,27,13,-1,25,9,-6,96,82,68,30.24,29.98,29.79,10,2,0,39,22,47,0.01,6,Fog-Snow,8
2012-12-10,13,1,-11,9,-2,-14,91,84,76,30.20,29.94,29.75,10,7,1,15,7,17,0.00,3,Snow,190
2012-12-11,25,16,6,20,15,7,96,85,74,29.92,29.85,29.75,10,6,1,14,7,17,T,6,Snow,215
2012-12-12,30,23,16,24,17,11,92,82,72,29.89,29.82,29.77,10,10,10,17,9,22,0.00,1,,148
2012-12-13,28,20,12,22,14,10,92,84,75,30.14,30.04,29.89,9,4,0,13,5,16,0.00,4,Fog,60
2012-12-14,35,26,16,27,19,14,92,81,69,30.09,29.90,29.68,10,6,0,17,9,23,0.00,1,Fog,145
2012-12-15,33,25,16,31,27,13,100,89,78,29.75,29.60,29.53,10,3,1,17,10,21,0.30,7,Rain-Snow,359
2012-12-16,21,18,14,19,17,12,100,94,88,29.86,29.78,29.70,10,3,0,18,8,22,0.00,8,Fog,4
2012-12-17,24,22,19,22,18,16,96,90,84,29.81,29.67,29.55,9,3,1,13,6,16,0.00,8,Snow,149
2012-12-18,28,20,11,27,22,12,100,94,88,29.85,29.63,29.51,10,2,0,15,7,18,0.01,7,Fog-Snow,185
2012-12-19,22,15,7,17,11,6,96,85,73,30.12,30.00,29.86,10,10,9,15,7,20,0.00,3,,267
2012-12-20,16,6,-5,13,8,-8,96,86,76,30.28,30.11,30.00,10,6,1,24,13,28,T,6,Snow,341
2012-12-21,16,4,-8,9,1,-9,91,76,61,30.35,30.26,30.13,10,8,2,17,6,22,0.00,0,,165
2012-12-22,20,12,4,13,7,1,100,87,73,30.19,30.10,30.04,10,9,5,20,10,22,0.00,0,,20
2012-12-23,10,7,4,6,3,1,91,86,80,30.17,30.07,29.97,10,4,1,20,8,23,0.00,6,Snow,58
2012-12-24,8,0,-9,5,-4,-12,90,83,75,30.46,30.23,29.99,10,8,4,17,10,20,0.01,3,Snow,354
2012-12-25,3,-5,-13,-1,-7,-16,95,87,79,30.62,30.54,30.36,10,10,6,10,5,12,0.00,2,,335
2012-12-26,10,7,3,2,0,-2,87,77,66,30.45,30.32,30.24,10,10,8,8,4,10,0.00,6,,135
2012-12-27,16,12,8,12,8,1,92,81,69,30.23,30.12,30.03,10,4,1,9,6,15,0.03,8,Snow,116
2012-12-28,16,13,9,13,10,8,100,90,80,30.15,30.09,29.99,10,6,2,10,5,13,0.00,8,,338
2012-12-29,11,3,-6,9,-1,-6,100,92,83,30.22,30.08,29.99,10,4,0,12,4,14,0.00,5,Fog,215
2012-12-30,19,10,0,16,7,-2,92,86,80,30.18,30.06,29.93,10,10,4,26,9,32,0.00,1,,218
2012-12-31,17,12,6,13,5,1,88,81,73,30.29,30.22,30.05,10,8,2,26,6,30,T,7,Snow,75